Skip Page Navigation
NASA JPL Caltech
NASA Logo - Jet Propulsion Laboratory + View the NASA Portal
+ Center for Near-Earth Object Studies
JPL Home Earth Solar System Stars & Galaxies Technology
JPL Solar System Dynamics
BODIES ORBITS EPHEMERIDES TOOLS PHYSICAL DATA DISCOVERY FAQ SITE MAP
JPL Small-Body Database Browser
Search: [ help ]  
351774 (2006 FE41)
Classification: Main-belt Asteroid          SPK-ID: 2351774
Ephemeris | Orbit Diagram | Orbital Elements | Mission Design | Physical Parameters | Discovery Circumstances | Close-Approach Data ]

[ show orbit diagram ]
Orbital Elements at Epoch 2459000.5 (2020-May-31.0) TDB
Reference: JPL 10 (heliocentric ecliptic J2000)
 Element Value Uncertainty (1-sigma)   Units 
e .1309061441435334 4.9751e-08  
a 2.408823217892234 2.0786e-08 au
q 2.093493458514544 1.2508e-07 au
i 2.307331741110027 5.4755e-06 deg
node 57.07617610588604 0.00018219 deg
peri 162.3426909267111 0.00018461 deg
M 269.9379105893478 3.125e-05 deg
tp 2459342.121611619973
(2021-May-07.62161162)
0.00012023 TDB
period 1365.544381525798
3.74
1.7676e-05
4.839e-08
d
yr
n .2636311238729218 3.4124e-09 deg/d
Q 2.724152977269925 2.3508e-08 au
  Orbit Determination Parameters
   # obs. used (total)      144  
   data-arc span      5600 days (15.33 yr)  
   first obs. used      2002-02-22  
   last obs. used      2017-06-23  
   planetary ephem.      DE431  
   SB-pert. ephem.      SB431-N16  
   condition code      0  
   norm. resid. RMS      .55735  
   source      ORB  
   producer      Otto Matic  
   solution date      2017-Jul-11 15:31:52  

Additional Information
 Earth MOID = 1.08569 au 
 Jupiter MOID = 2.24609 au 
 T_jup = 3.508 
[ show covariance matrix ]

Ephemeris | Orbit Diagram | Orbital Elements | Mission Design | Physical Parameters | Discovery Circumstances | Close-Approach Data ]

Physical Parameter Table
Parameter Symbol Value Units Sigma Reference Notes
absolute magnitude H 17.6   n/a MPO413350  

351774 (2006 FE41)          Discovered 2006-Mar-26 by Mt. Lemmon Survey at Mount Lemmon
Reference: 20130127/Numbers.arcLast Updated: 2013-01-31

[ show close-approach data ]
Ephemeris | Orbit Diagram | Orbital Elements | Mission Design | Physical Parameters | Discovery Circumstances | Close-Approach Data ]
ABOUT SSD CREDITS/AWARDS PRIVACY/COPYRIGHT GLOSSARY LINKS
FirstGov 2020-Jul-05 18:10 UT
(server date/time)  
NASA Home Page
Site Manager:   Ryan S. Park
Webmaster  Alan B. Chamberlin